Location: Madrid
(40.4000°N, 3.6830°W)
Time: 01:06:10
(UTC+02:00)

ISS - Pass Details

Date: 16 July 2019
Orbit: 409 x 418 km, 51.6° (Epoch: 23 July)

Event Time Altitude Azimuth Distance (km) Brightness Sun altitude
Rises 06:18:50 0° 306° (NW) 2,342 -0.1 -7.1°
Reaches altitude 10° 06:20:55 10° 306° (NW) 1,477 -1.2 -6.7°
Maximum altitude 06:24:14 85° 218° (SW) 415 -3.8 -6.2°
Drops below altitude 10° 06:27:31 10° 130° (SE) 1,466 -0.8 -5.7°
Sets 06:29:36 0° 130° (SE) 2,323 0.2 -5.4°
